Date String (YYYY-MM-DD hh:mm:ss) UTC,Instrument flags,absolute air pressure of the measurement (hPa),sample flow rate (lpm),inlet stack bypass flow (lpm),air temperature of the measurement (°C),ambient temperature measured by the external sensor (°C),aerosol sample conditioner tube jacket temperature (°C),OPC LED temperature (°C),internal box temperature (°C),relative humidity of the measurement (%),span deviation,mass concentration of particles derived from Lorenz-Mie calculation of OPC scattering (μg/m³),mass concentration of particles derived from Lorenz-Mie calculation of OPC scattering (μg/m³),mass concentration of particles derived from Lorenz-Mie calculation of OPC scattering (μg/m³)
DateTimeUTC,F1_M11,P_M11,Q1_M11,Q2_M11,T1_M11,T2_M11,T3_M11,T4_M11,T5_M11,U1_M11,ZSPAN_M11,X2_M11,X0_M11,X1_M11
2023-12-07 10:00:00,SystemResetWarning,0821.4,5.00,000.00,024.4,023.4,000.0,032.7,025.7,9.6,0000.0,0002.61,0006.49,0002.01
2023-12-07 10:01:00,SystemResetWarning,0821.4,5.00,000.00,024.4,023.4,000.0,032.7,025.7,9.7,0000.0,0002.55,0005.99,0001.99
2023-12-07 10:02:00,SystemResetWarning,0821.4,4.99,000.00,024.4,023.4,000.0,032.7,025.7,10.1,0000.0,0002.46,0006.49,0001.97
2023-12-07 10:03:00,SystemResetWarning,0821.3,5.00,000.00,024.4,023.4,000.0,032.7,025.7,10.3,0000.0,0002.42,0006.79,0001.96
2023-12-07 10:04:00,SystemResetWarning,0821.3,5.00,000.00,024.4,023.4,000.0,032.7,025.7,10.4,0000.0,0002.45,0006.88,0001.96
2023-12-07 10:05:00,SystemResetWarning,0821.4,5.00,000.00,024.4,023.4,000.0,032.7,025.7,10.4,0000.0,0002.42,0006.77,0001.95
2023-12-07 10:06:00,SystemResetWarning,0821.4,5.00,000.00,024.4,023.4,000.0,032.7,025.7,10.4,0000.0,0002.43,0007.76,0001.96
2023-12-07 10:07:00,SystemResetWarning,0822.0,4.99,000.00,024.4,023.4,000.0,032.7,025.7,10.4,0000.0,0002.45,0007.67,0001.99
2023-12-07 10:08:00,SystemResetWarning,0821.8,4.99,000.00,024.4,023.4,000.0,032.7,025.7,10.4,0000.0,0002.54,0007.83,0002.05
2023-12-07 10:09:00,SystemResetWarning,0821.6,4.99,000.00,024.4,023.4,000.0,032.7,025.6,10.3,0000.0,0002.60,0007.88,0002.10
2023-12-07 10:10:00,SystemResetWarning,0821.3,5.00,000.00,024.4,023.4,000.0,032.7,025.7,10.3,0000.0,0002.64,0007.91,0002.14
2023-12-07 10:11:00,SystemResetWarning,0821.3,5.01,000.00,024.4,023.4,000.0,032.7,025.7,10.3,0000.0,0002.67,0007.56,0002.18
2023-12-07 10:12:00,SystemResetWarning,0821.5,5.00,000.00,024.4,023.4,000.0,032.7,025.7,10.2,0000.0,0002.77,0007.03,0002.26
2023-12-07 10:13:00,SystemResetWarning,0821.9,5.00,000.00,024.4,023.4,000.0,032.7,025.7,10.2,0000.0,0002.88,0006.60,0002.38
2023-12-07 10:14:00,SystemResetWarning,0821.4,5.00,000.00,024.4,023.4,000.0,032.7,025.7,10.3,0000.0,0002.98,0005.56,0002.49
2023-12-07 10:15:00,SystemResetWarning,0821.3,5.00,000.00,024.4,023.4,000.0,032.7,025.7,10.3,0000.0,0003.04,0005.46,0002.60
2023-12-07 10:16:00,SystemResetWarning,0821.3,5.01,000.00,024.4,023.4,000.0,032.7,025.7,10.3,0000.0,0003.13,0005.57,0002.72
2023-12-07 10:17:00,SystemResetWarning,0821.3,5.00,000.00,024.4,023.4,000.0,032.7,025.6,10.3,0000.0,0003.19,0004.54,0002.84
2023-12-07 10:18:00,SystemResetWarning,0821.3,5.00,000.00,024.4,023.4,000.0,032.7,025.7,10.3,0000.0,0003.24,0005.08,0002.92
2023-12-07 10:19:00,SystemResetWarning,0821.3,5.00,000.00,024.4,023.4,000.0,032.7,025.7,10.4,0000.0,0003.28,0004.90,0003.02
2023-12-07 10:20:00,SystemResetWarning,0821.8,4.99,000.00,024.4,023.4,000.0,032.7,025.6,10.4,0000.0,0003.35,0005.12,0003.12
2023-12-07 10:21:00,SystemResetWarning,0821.7,4.99,000.00,024.4,023.4,000.0,032.7,025.6,10.4,0000.0,0003.42,0005.81,0003.18
2023-12-07 10:22:00,SystemResetWarning,0821.3,5.01,000.00,024.4,023.3,000.0,032.7,025.6,10.3,0000.0,0003.49,0006.42,0003.24
2023-12-07 10:23:00,SystemResetWarning,0821.3,5.01,000.00,024.4,023.3,000.0,032.7,025.6,10.3,0000.0,0003.55,0006.58,0003.28
2023-12-07 10:24:00,SystemResetWarning,0821.3,4.99,000.00,024.3,023.3,000.0,032.7,025.6,10.4,0000.0,0003.58,0007.67,0003.29
2023-12-07 10:25:00,SystemResetWarning,0821.7,4.99,000.00,024.3,023.3,000.0,032.7,025.6,10.4,0000.0,0003.57,0007.83,0003.29
2023-12-07 10:26:00,SystemResetWarning,0821.8,4.99,000.00,024.3,023.3,000.0,032.7,025.6,10.4,0000.0,0003.57,0007.81,0003.29
2023-12-07 10:27:00,SystemResetWarning,0821.4,5.01,000.00,024.3,023.3,000.0,032.7,025.5,10.4,0000.0,0003.58,0007.94,0003.32
2023-12-07 10:28:00,SystemResetWarning,0821.3,5.01,000.00,024.3,023.3,000.0,032.7,025.5,10.4,0000.0,0003.62,0008.38,0003.33
2023-12-07 10:29:00,SystemResetWarning,0821.3,5.00,000.00,024.3,023.3,000.0,032.6,025.6,10.4,0000.0,0003.64,0008.43,0003.34
2023-12-07 10:30:00,SystemResetWarning,0821.2,4.98,000.00,024.3,023.3,000.0,032.6,025.6,10.4,0000.0,0003.66,0008.48,0003.35
2023-12-07 10:31:00,SystemResetWarning,0821.2,5.01,000.00,024.3,023.3,000.0,032.6,025.6,10.5,0000.0,0003.64,0008.41,0003.34
2023-12-07 10:32:00,SystemResetWarning,0821.1,5.01,000.00,024.3,023.3,000.0,032.6,025.6,10.4,0000.0,0003.62,0008.20,0003.32
2023-12-07 10:33:00,SystemResetWarning,0821.2,5.01,000.00,024.3,023.3,000.0,032.6,025.6,10.4,0000.0,0003.59,0007.91,0003.31
2023-12-07 10:34:00,SystemResetWarning,0821.2,4.98,000.00,024.3,023.3,000.0,032.6,025.6,10.4,0000.0,0003.55,0007.89,0003.29
2023-12-07 10:35:00,SystemResetWarning,0821.0,4.99,000.00,024.3,023.3,000.0,032.6,025.5,10.2,0000.0,0003.53,0007.07,0003.29
2023-12-07 10:36:00,SystemResetWarning,0821.1,5.01,000.00,024.3,023.3,000.0,032.6,025.6,9.6,0000.0,0003.55,0006.74,0003.31
2023-12-07 10:37:00,SystemResetWarning,0821.0,5.01,000.00,024.3,023.3,000.0,032.6,025.6,8.7,0000.0,0003.56,0006.88,0003.32
2023-12-07 10:38:00,SystemResetWarning,0821.1,4.99,000.00,024.3,023.3,000.0,032.6,025.6,9.0,0000.0,0003.56,0006.59,0003.32
2023-12-07 10:39:00,SystemResetWarning,0820.8,5.00,000.00,024.3,023.3,000.0,032.6,025.5,10.0,0000.0,0003.55,0006.35,0003.33
2023-12-07 10:40:00,SystemResetWarning,0820.9,5.00,000.00,024.3,023.3,000.0,032.6,025.5,8.8,0000.0,0003.59,0006.20,0003.36
2023-12-07 10:41:00,SystemResetWarning,0821.0,5.00,000.00,024.3,023.3,000.0,032.6,025.6,8.6,0000.0,0003.63,0006.47,0003.40
2023-12-07 10:42:00,SystemResetWarning,0821.0,5.01,000.00,024.3,023.3,000.0,032.6,025.5,9.1,0000.0,0003.70,0006.85,0003.44
2023-12-07 10:43:00,SystemResetWarning,0820.8,5.00,000.00,024.3,023.3,000.0,032.6,025.5,9.7,0000.0,0003.78,0007.27,0003.49
2023-12-07 10:44:00,SystemResetWarning,0820.8,5.00,000.00,024.3,023.3,000.0,032.6,025.5,8.7,0000.0,0003.82,0007.66,0003.54
2023-12-07 10:45:00,SystemResetWarning,0820.8,4.99,000.00,024.3,023.3,000.0,032.6,025.5,9.1,0000.0,0003.84,0007.57,0003.55
2023-12-07 10:46:00,SystemResetWarning,0820.8,4.99,000.00,024.2,023.2,000.0,032.6,025.5,9.4,0000.0,0003.82,0007.61,0003.52
2023-12-07 10:47:00,SystemResetWarning,0820.8,5.00,000.00,024.2,023.2,000.0,032.6,025.5,8.7,0000.0,0003.72,0008.27,0003.43
2023-12-07 10:48:00,SystemResetWarning,0820.8,5.01,000.00,024.2,023.2,000.0,032.6,025.5,8.0,0000.0,0003.68,0008.25,0003.37
2023-12-07 10:49:00,SystemResetWarning,0820.8,5.01,000.00,024.2,023.2,000.0,032.6,025.5,9.5,0000.0,0003.68,0008.44,0003.36
2023-12-07 10:50:00,SystemResetWarning,0820.8,5.00,000.00,024.3,023.2,000.0,032.6,025.6,9.8,0000.0,0003.55,0008.07,0003.24
2023-12-07 10:51:00,SystemResetWarning,0820.8,5.00,000.00,024.2,023.2,000.0,032.6,025.6,9.8,0000.0,0003.40,0007.57,0003.12
2023-12-07 10:52:00,SystemResetWarning,0820.8,5.00,000.00,024.2,023.2,000.0,032.6,025.6,9.8,0000.0,0003.32,0007.42,0003.02
2023-12-07 10:53:00,SystemResetWarning,0820.8,5.00,000.00,024.2,023.2,000.0,032.6,025.5,9.9,0000.0,0003.26,0007.32,0002.92
2023-12-07 10:54:00,SystemResetWarning,0820.8,5.00,000.00,024.2,023.2,000.0,032.6,025.5,10.0,0000.0,0003.12,0007.15,0002.70
2023-12-07 10:55:00,SystemResetWarning,0821.0,5.00,000.00,024.2,023.3,000.0,032.6,025.5,10.0,0000.0,0003.04,0006.92,0002.57
2023-12-07 10:56:00,SystemResetWarning,0821.0,5.00,000.00,024.2,023.3,000.0,032.6,025.5,10.2,0000.0,0002.94,0007.77,0002.46
2023-12-07 10:57:00,SystemResetWarning,0821.1,5.00,000.00,024.2,023.3,000.0,032.6,025.5,10.5,0000.0,0002.79,0007.60,0002.32
2023-12-07 10:58:00,SystemResetWarning,0821.0,5.00,000.00,024.2,023.2,000.0,032.6,025.5,10.6,0000.0,0002.71,0006.33,0002.28
2023-12-07 10:59:00,SystemResetWarning,0820.9,5.00,000.00,024.2,023.2,000.0,032.6,025.5,10.4,0000.0,0002.76,0006.28,0002.32
